Location: Dentlein
(49.1477°N, 10.4231°E)
Time: 08:08:06
(UTC+00:00)

Cosmos 724 - Pass Details

Date: 23 May 2024
Orbit: 864 x 930 km, 65.6° (Epoch: 15 June)

Event Time Altitude Azimuth Distance (km) Brightness Sun altitude
Exits shadow 00:12:02 27° 230° (SW) 1,642 5.3 -19.1°
Maximum altitude 00:15:24 73° 310° (NW) 920 4.4 -18.9°
Drops below altitude 10° 00:21:14 10° 36° (NE) 2,523 7.8 -18.7°
Sets 00:23:44 0° 38° (NE) 3,460 8.7 -18.6°
